Altoona, PA

5:57 AM EDT on May 24, 2017 (GMT -0400)
Altoona-Blair County

Weather History for KAOO - September, 2013

Change the Weather History Date:

Sunday, September 1, 2013

  Actual Average Record
Temperature  
Mean Temperature 73 °F 67 °F  
Max Temperature 81 °F 77 °F 96 °F (1953)
Min Temperature 64 °F 56 °F 41 °F (1948)
Degree Days  
Heating Degree Days 0 2  
Month to date heating degree days 0 2  
Since 1 July heating degree days 21 26  
Cooling Degree Days 8 3  
Month to date cooling degree days 8 3  
Year to date cooling degree days 616 476  
Growing Degree Days 24 (Base 50)    
Moisture  
Dew Point 68 °F    
Average Humidity 80    
Maximum Humidity 93    
Minimum Humidity 67    
Precipitation  
Precipitation T in 0.11 in 1.15 in (1952)
Month to date precipitation T 0.11  
Year to date precipitation 19.01 21.03  
Sea Level Pressure  
Sea Level Pressure 29.85 in    
Wind  
Wind Speed 2 mph (SSW)    
Max Wind Speed 9 mph    
Max Gust Speed 12 mph    
Visibility 8 miles    
Events Rain , Thunderstorm    
T = Trace of Precipitation, MM = Missing Value Source: NWS Daily Summary

Daily Weather History Graph

Daily Weather History Graph

Search for Another Location

Airport or City:

Trip Planner

Search our weather history database for the weather conditions in past years. The results will help you decide how hot, cold, wet, or windy it might be!

Date:

Astronomy

Sep. 01, 2013 Rise Set
Actual Time 6:40 AM EDT 7:44 PM EDT
Civil Twilight 6:13 AM EDT 8:12 PM EDT
Nautical Twilight 5:39 AM EDT 8:45 PM EDT
Astronomical Twilight 5:05 AM EDT 9:20 PM EDT
Moon 3:00 AM EDT (9/1) 5:21 PM EDT (9/1)
Length of Visible Light 13h 59m
Length of Day
13h 03m
Waning Crescent, 14% of the Moon is Illuminated
Sep 1
Waning Crescent
Sep 5
New
Sep 12
First Quarter
Sep 19
Full
Sep 26
Last Quarter

Hourly Weather History & Observations

Time (EDT) Temp. Heat Index Dew Point Humidity Pressure Visibility Wind Dir Wind Speed Gust Speed Precip Events Conditions
12:53 AM 69.1 °F - 66.0 °F 90% 29.84 in 10.0 mi SW 5.8 mph - N/A   Clear
1:53 AM 69.1 °F - 66.9 °F 93% 29.82 in 10.0 mi SSW 4.6 mph - N/A   Clear
2:53 AM 66.9 °F - 64.9 °F 93% 29.83 in 7.0 mi Calm Calm - N/A   Clear
3:31 AM 66.2 °F - 66.2 °F 100% 29.87 in 9.0 mi Calm Calm - N/A   Mostly Cloudy
3:38 AM 66.2 °F - 64.4 °F 94% 29.86 in 9.0 mi Calm Calm - N/A   Scattered Clouds
3:53 AM 66.9 °F - 64.9 °F 93% 29.83 in 9.0 mi Calm Calm - N/A   Scattered Clouds
4:53 AM 66.0 °F - 64.0 °F 93% 29.84 in 7.0 mi Calm Calm - N/A   Clear
5:53 AM 66.0 °F - 64.9 °F 96% 29.85 in 4.0 mi Calm Calm - N/A   Clear
6:53 AM 66.0 °F - 64.0 °F 93% 29.86 in 3.0 mi Calm Calm - N/A   Clear
7:26 AM 66.2 °F - 64.4 °F 94% 29.89 in 2.5 mi Calm Calm - N/A   Scattered Clouds
7:53 AM 68.0 °F - 66.9 °F 96% 29.86 in 3.0 mi Calm Calm - N/A   Clear
8:53 AM 72.0 °F - 69.1 °F 91% 29.87 in 6.0 mi Calm Calm - N/A   Partly Cloudy
9:32 AM 73.4 °F - 69.8 °F 88% 29.90 in 6.0 mi WSW 3.5 mph - N/A   Mostly Cloudy
9:53 AM 73.9 °F - 69.1 °F 85% 29.87 in 8.0 mi SSW 5.8 mph - N/A   Mostly Cloudy
10:09 AM 73.4 °F - 69.8 °F 88% 29.90 in 9.0 mi SSW 3.5 mph - N/A   Scattered Clouds
10:53 AM 75.9 °F - 69.1 °F 79% 29.88 in 10.0 mi West 3.5 mph - N/A   Mostly Cloudy
11:20 AM 75.2 °F - 69.8 °F 83% 29.91 in 10.0 mi Calm Calm - N/A   Scattered Clouds
11:53 AM 77.0 °F - 69.1 °F 76% 29.87 in 10.0 mi Calm Calm - N/A   Mostly Cloudy
12:28 PM 77.0 °F - 69.8 °F 78% 29.89 in 9.0 mi West 3.5 mph - N/A   Mostly Cloudy
12:53 PM 78.1 °F - 70.0 °F 76% 29.86 in 9.0 mi Calm Calm - N/A   Mostly Cloudy
1:03 PM 78.8 °F - 69.8 °F 74% 29.89 in 9.0 mi Calm Calm - N/A   Scattered Clouds
1:53 PM 81.0 °F 84.4 °F 70.0 °F 69% 29.84 in 10.0 mi Calm Calm - N/A   Partly Cloudy
2:53 PM 79.0 °F - 70.0 °F 74% 29.84 in 10.0 mi SW 8.1 mph - N/A   Clear
3:53 PM 80.1 °F 82.7 °F 68.0 °F 67% 29.82 in 10.0 mi Calm Calm - N/A   Clear
4:53 PM 79.0 °F - 68.0 °F 69% 29.82 in 10.0 mi Calm Calm - N/A   Clear
5:53 PM 78.1 °F - 70.0 °F 76% 29.82 in 10.0 mi SSW 8.1 mph - 0.00 in Rain Light Rain
6:19 PM 78.8 °F - 69.8 °F 74% 29.85 in 10.0 mi South 3.5 mph - N/A Thunderstorm Partly Cloudy
6:34 PM 78.8 °F - 69.8 °F 74% 29.84 in 10.0 mi Calm Calm - N/A   Clear
6:53 PM 78.1 °F - 69.1 °F 74% 29.81 in 10.0 mi South 3.5 mph - N/A   Clear
7:53 PM 73.0 °F - 69.1 °F 87% 29.82 in 10.0 mi Calm Calm - N/A   Clear
8:53 PM 71.1 °F - 68.0 °F 90% 29.83 in 10.0 mi South 3.5 mph - N/A   Clear
9:53 PM 69.1 °F - 66.9 °F 93% 29.85 in 10.0 mi SSE 3.5 mph - N/A   Clear
10:53 PM 68.0 °F - 66.0 °F 93% 29.84 in 10.0 mi Calm Calm - N/A   Clear
11:53 PM 68.0 °F - 66.0 °F 93% 29.83 in 10.0 mi Calm Calm - N/A   Overcast